Time,TemperatureF,DewpointF,PressureIn,WindDirection,WindDirectionDegrees,WindSpeedMPH,WindSpeedGustMPH,Humidity,HourlyPrecipIn,Conditions,Clouds,dailyrainin,SoftwareType,DateUTC
2013-07-16 00:00:00,66.0,32.6,29.77,NE,45,4.6,8.1,29,0.00,,,0.00,WUHU216TE923,2013-07-16 07:00:00,
2013-07-16 00:05:00,66.0,32.6,29.77,NNW,338,5.0,8.2,29,0.00,,,0.00,WUHU216TE923,2013-07-16 07:05:00,
2013-07-16 00:10:00,66.0,32.6,29.77,NNW,338,5.2,8.2,29,0.00,,,0.00,WUHU216TE923,2013-07-16 07:10:00,
2013-07-16 00:15:00,66.0,32.6,29.77,NNW,338,5.2,8.0,29,0.00,,,0.00,WUHU216TE923,2013-07-16 07:15:00,
2013-07-16 00:20:00,65.7,33.2,29.78,NW,315,5.9,8.0,30,0.00,,,0.00,WUHU216TE923,2013-07-16 07:20:00,
2013-07-16 00:25:00,65.7,33.2,29.78,North,0,5.8,7.0,30,0.00,,,0.00,WUHU216TE923,2013-07-16 07:25:00,
2013-07-16 00:30:00,65.7,33.2,29.78,NW,315,5.6,7.4,30,0.00,,,0.00,WUHU216TE923,2013-07-16 07:30:00,
2013-07-16 00:35:00,65.5,33.0,29.78,NNE,23,5.5,9.8,30,0.00,,,0.00,WUHU216TE923,2013-07-16 07:35:00,
2013-07-16 00:40:00,65.5,33.0,29.77,NNE,23,5.6,9.8,30,0.00,,,0.00,WUHU216TE923,2013-07-16 07:40:00,
2013-07-16 00:45:00,65.3,32.9,29.77,NNE,23,4.9,6.6,30,0.00,,,0.00,WUHU216TE923,2013-07-16 07:45:00,
2013-07-16 00:50:00,65.3,32.9,29.77,NNW,338,4.7,6.6,30,0.00,,,0.00,WUHU216TE923,2013-07-16 07:50:00,
2013-07-16 00:55:00,65.1,32.7,29.77,ENE,68,4.9,6.6,30,0.00,,,0.00,WUHU216TE923,2013-07-16 07:55:00,
2013-07-16 01:00:00,64.9,32.5,29.78,North,0,5.1,5.2,30,0.00,,,0.00,WUHU216TE923,2013-07-16 08:00:00,
2013-07-16 01:05:00,64.9,32.5,29.78,NW,315,4.8,6.1,30,0.00,,,0.00,WUHU216TE923,2013-07-16 08:05:00,
2013-07-16 01:10:00,64.8,32.4,29.78,East,90,4.7,6.8,30,0.00,,,0.00,WUHU216TE923,2013-07-16 08:10:00,
2013-07-16 01:15:00,64.6,33.1,29.78,ENE,68,5.0,6.8,31,0.00,,,0.00,WUHU216TE923,2013-07-16 08:15:00,
2013-07-16 01:20:00,64.6,33.1,29.78,NNE,23,4.9,6.5,31,0.00,,,0.00,WUHU216TE923,2013-07-16 08:20:00,
2013-07-16 01:25:00,64.4,32.9,29.78,NNE,23,4.4,6.0,31,0.00,,,0.00,WUHU216TE923,2013-07-16 08:25:00,
2013-07-16 01:30:00,64.4,32.9,29.78,NNW,338,4.4,6.0,31,0.00,,,0.00,WUHU216TE923,2013-07-16 08:30:00,
2013-07-16 01:35:00,64.2,32.7,29.78,NNW,338,4.4,7.5,31,0.00,,,0.00,WUHU216TE923,2013-07-16 08:35:00,
2013-07-16 01:40:00,64.2,32.7,29.77,NW,315,4.5,7.5,31,0.00,,,0.00,WUHU216TE923,2013-07-16 08:40:00,
2013-07-16 01:45:00,64.0,32.5,29.77,North,0,5.0,7.3,31,0.00,,,0.00,WUHU216TE923,2013-07-16 08:45:00,
2013-07-16 01:50:00,64.0,33.3,29.77,NE,45,5.0,5.7,32,0.00,,,0.00,WUHU216TE923,2013-07-16 08:50:00,
2013-07-16 01:55:00,63.9,33.2,29.77,NNW,338,4.8,5.7,32,0.00,,,0.00,WUHU216TE923,2013-07-16 08:55:00,
2013-07-16 02:00:00,63.9,33.2,29.78,NNE,23,4.5,5.7,32,0.00,,,0.00,WUHU216TE923,2013-07-16 09:00:00,
2013-07-16 02:05:00,63.9,33.2,29.78,NNE,23,4.1,7.9,32,0.00,,,0.00,WUHU216TE923,2013-07-16 09:05:00,
2013-07-16 02:10:00,63.7,33.1,29.78,NNW,338,4.1,7.9,32,0.00,,,0.00,WUHU216TE923,2013-07-16 09:10:00,
2013-07-16 02:15:00,63.7,33.1,29.78,NNE,23,3.9,5.3,32,0.00,,,0.00,WUHU216TE923,2013-07-16 09:15:00,
2013-07-16 02:20:00,63.5,32.9,29.78,West,270,3.8,4.2,32,0.00,,,0.00,WUHU216TE923,2013-07-16 09:20:00,
2013-07-16 02:25:00,63.5,32.9,29.78,NNE,23,3.7,5.4,32,0.00,,,0.00,WUHU216TE923,2013-07-16 09:25:00,
2013-07-16 02:30:00,63.5,32.9,29.78,NW,315,4.0,5.4,32,0.00,,,0.00,WUHU216TE923,2013-07-16 09:30:00,
2013-07-16 02:35:00,63.5,32.9,29.78,NE,45,4.3,4.7,32,0.00,,,0.00,WUHU216TE923,2013-07-16 09:35:00,
2013-07-16 02:40:00,63.3,32.7,29.77,NNE,23,4.3,7.5,32,0.00,,,0.00,WUHU216TE923,2013-07-16 09:40:00,
2013-07-16 02:45:00,63.5,32.9,29.77,NW,315,4.7,7.5,32,0.00,,,0.00,WUHU216TE923,2013-07-16 09:45:00,
2013-07-16 02:50:00,63.3,32.7,29.77,NW,315,5.0,5.6,32,0.00,,,0.00,WUHU216TE923,2013-07-16 09:50:00,
2013-07-16 02:55:00,63.5,32.9,29.77,NW,315,5.2,6.7,32,0.00,,,0.00,WUHU216TE923,2013-07-16 09:55:00,
2013-07-16 03:00:00,63.3,32.7,29.77,North,0,5.3,6.7,32,0.00,,,0.00,WUHU216TE923,2013-07-16 10:00:00,
2013-07-16 03:05:00,63.3,32.7,29.77,NNW,338,5.0,6.1,32,0.00,,,0.00,WUHU216TE923,2013-07-16 10:05:00,
2013-07-16 03:10:00,63.3,32.7,29.77,NW,315,4.9,5.7,32,0.00,,,0.00,WUHU216TE923,2013-07-16 10:10:00,
2013-07-16 03:15:00,63.3,32.7,29.77,NW,315,4.9,4.9,32,0.00,,,0.00,WUHU216TE923,2013-07-16 10:15:00,
2013-07-16 03:20:00,63.3,32.7,29.77,NW,315,4.9,5.4,32,0.00,,,0.00,WUHU216TE923,2013-07-16 10:20:00,
2013-07-16 03:25:00,63.1,32.5,29.77,NNW,338,4.5,5.4,32,0.00,,,0.00,WUHU216TE923,2013-07-16 10:25:00,
2013-07-16 03:30:00,63.1,32.5,29.77,NNW,338,4.5,4.5,32,0.00,,,0.00,WUHU216TE923,2013-07-16 10:30:00,
2013-07-16 03:35:00,63.0,31.7,29.77,NE,45,4.9,7.2,31,0.00,,,0.00,WUHU216TE923,2013-07-16 10:35:00,
2013-07-16 03:40:00,63.0,31.7,29.77,NW,315,4.9,7.2,31,0.00,,,0.00,WUHU216TE923,2013-07-16 10:40:00,
2013-07-16 03:45:00,63.0,31.7,29.77,NW,315,4.8,5.7,31,0.00,,,0.00,WUHU216TE923,2013-07-16 10:45:00,
2013-07-16 03:50:00,62.8,31.5,29.77,NNE,23,4.8,8.2,31,0.00,,,0.00,WUHU216TE923,2013-07-16 10:50:00,
2013-07-16 03:55:00,62.8,31.5,29.77,NNW,338,4.4,8.2,31,0.00,,,0.00,WUHU216TE923,2013-07-16 10:55:00,
2013-07-16 04:00:00,62.6,31.3,29.78,NNW,338,4.3,7.9,31,0.00,,,0.00,WUHU216TE923,2013-07-16 11:00:00,
2013-07-16 04:05:00,62.6,31.3,29.78,WNW,293,4.4,7.9,31,0.00,,,0.00,WUHU216TE923,2013-07-16 11:05:00,
2013-07-16 04:10:00,62.4,31.1,29.78,NW,315,4.6,5.3,31,0.00,,,0.00,WUHU216TE923,2013-07-16 11:10:00,
2013-07-16 04:15:00,62.6,31.3,29.78,NNE,23,4.6,5.7,31,0.00,,,0.00,WUHU216TE923,2013-07-16 11:15:00,
2013-07-16 04:20:00,62.4,31.1,29.77,NW,315,4.6,5.7,31,0.00,,,0.00,WUHU216TE923,2013-07-16 11:20:00,
2013-07-16 04:25:00,62.4,31.1,29.77,NNE,23,4.5,5.4,31,0.00,,,0.00,WUHU216TE923,2013-07-16 11:25:00,
2013-07-16 04:30:00,62.2,31.0,29.77,NW,315,4.2,5.4,31,0.00,,,0.00,WUHU216TE923,2013-07-16 11:30:00,
2013-07-16 04:35:00,62.2,31.0,29.77,NNE,23,4.1,5.4,31,0.00,,,0.00,WUHU216TE923,2013-07-16 11:35:00,
2013-07-16 04:40:00,62.2,31.0,29.77,NE,45,3.9,4.4,31,0.00,,,0.00,WUHU216TE923,2013-07-16 11:40:00,
2013-07-16 04:45:00,62.1,30.9,29.77,NNW,338,3.6,4.9,31,0.00,,,0.00,WUHU216TE923,2013-07-16 11:45:00,
2013-07-16 04:50:00,62.2,30.2,29.77,NNW,338,4.1,5.9,30,0.00,,,0.00,WUHU216TE923,2013-07-16 11:50:00,
2013-07-16 04:55:00,62.2,30.2,29.77,NE,45,4.5,5.9,30,0.00,,,0.00,WUHU216TE923,2013-07-16 11:55:00,
2013-07-16 05:00:00,62.1,30.1,29.76,NNW,338,4.3,5.3,30,0.00,,,0.00,WUHU216TE923,2013-07-16 12:00:00,
2013-07-16 05:05:00,61.9,29.9,29.76,ENE,68,4.2,6.0,30,0.00,,,0.00,WUHU216TE923,2013-07-16 12:05:00,
2013-07-16 05:10:00,61.9,29.9,29.76,NE,45,4.0,6.0,30,0.00,,,0.00,WUHU216TE923,2013-07-16 12:10:00,
2013-07-16 05:15:00,61.9,29.9,29.76,NNW,338,4.3,6.4,30,0.00,,,0.00,WUHU216TE923,2013-07-16 12:15:00,
2013-07-16 05:20:00,61.9,29.9,29.76,NNW,338,4.6,6.4,30,0.00,,,0.00,WUHU216TE923,2013-07-16 12:20:00,
2013-07-16 05:25:00,61.7,29.7,29.76,ENE,68,4.5,6.2,30,0.00,,,0.00,WUHU216TE923,2013-07-16 12:25:00,
2013-07-16 05:30:00,61.9,29.9,29.76,NNW,338,4.2,5.5,30,0.00,,,0.00,WUHU216TE923,2013-07-16 12:30:00,
2013-07-16 05:35:00,61.7,29.7,29.76,NNE,23,4.0,6.0,30,0.00,,,0.00,WUHU216TE923,2013-07-16 12:35:00,
2013-07-16 05:40:00,61.7,29.7,29.76,NW,315,4.1,6.0,30,0.00,,,0.00,WUHU216TE923,2013-07-16 12:40:00,
2013-07-16 05:45:00,61.7,29.7,29.76,NNW,338,4.8,5.1,30,0.00,,,0.00,WUHU216TE923,2013-07-16 12:45:00,
2013-07-16 05:50:00,61.5,29.6,29.76,NNE,23,4.7,5.1,30,0.00,,,0.00,WUHU216TE923,2013-07-16 12:50:00,
2013-07-16 05:55:00,61.3,29.4,29.76,North,0,4.2,6.1,30,0.00,,,0.00,WUHU216TE923,2013-07-16 12:55:00,
2013-07-16 06:00:00,61.3,29.4,29.76,NW,315,4.1,6.1,30,0.00,,,0.00,WUHU216TE923,2013-07-16 13:00:00,
2013-07-16 06:05:00,61.5,29.6,29.76,NNE,23,4.4,7.3,30,0.00,,,0.00,WUHU216TE923,2013-07-16 13:05:00,
2013-07-16 06:10:00,61.5,29.6,29.76,NE,45,4.1,7.3,30,0.00,,,0.00,WUHU216TE923,2013-07-16 13:10:00,
2013-07-16 06:15:00,61.5,29.6,29.76,NE,45,4.1,6.2,30,0.00,,,0.00,WUHU216TE923,2013-07-16 13:15:00,
2013-07-16 06:20:00,61.3,30.2,29.76,NNE,23,4.0,6.2,31,0.00,,,0.00,WUHU216TE923,2013-07-16 13:20:00,
2013-07-16 06:25:00,61.3,30.2,29.76,NNE,23,3.8,4.9,31,0.00,,,0.00,WUHU216TE923,2013-07-16 13:25:00,
2013-07-16 06:30:00,61.3,30.2,29.76,NE,45,4.3,4.9,31,0.00,,,0.00,WUHU216TE923,2013-07-16 13:30:00,
2013-07-16 06:35:00,61.5,30.4,29.76,NNE,23,4.6,4.9,31,0.00,,,0.00,WUHU216TE923,2013-07-16 13:35:00,
2013-07-16 06:40:00,61.7,30.5,29.77,NNE,23,4.4,4.6,31,0.00,,,0.00,WUHU216TE923,2013-07-16 13:40:00,
2013-07-16 06:45:00,62.1,30.9,29.77,NE,45,4.4,6.0,31,0.00,,,0.00,WUHU216TE923,2013-07-16 13:45:00,
2013-07-16 06:50:00,62.2,31.0,29.77,NNE,23,4.7,6.0,31,0.00,,,0.00,WUHU216TE923,2013-07-16 13:50:00,
2013-07-16 06:55:00,62.2,31.0,29.77,NE,45,4.6,6.0,31,0.00,,,0.00,WUHU216TE923,2013-07-16 13:55:00,
2013-07-16 07:00:00,62.1,30.9,29.75,NNW,338,4.0,6.0,31,0.00,,,0.00,WUHU216TE923,2013-07-16 14:00:00,
2013-07-16 07:05:00,61.9,30.7,29.75,NNE,23,3.9,4.2,31,0.00,,,0.00,WUHU216TE923,2013-07-16 14:05:00,
2013-07-16 07:10:00,61.9,30.7,29.75,NNW,338,3.9,5.8,31,0.00,,,0.00,WUHU216TE923,2013-07-16 14:10:00,
2013-07-16 07:15:00,62.4,31.1,29.75,NE,45,4.2,6.3,31,0.00,,,0.00,WUHU216TE923,2013-07-16 14:15:00,
2013-07-16 07:20:00,62.6,31.3,29.77,NNW,338,3.9,6.3,31,0.00,,,0.00,WUHU216TE923,2013-07-16 14:20:00,
2013-07-16 07:25:00,63.0,31.7,29.77,ENE,68,4.1,5.9,31,0.00,,,0.00,WUHU216TE923,2013-07-16 14:25:00,
2013-07-16 07:30:00,63.0,31.7,29.77,NE,45,4.6,4.8,31,0.00,,,0.00,WUHU216TE923,2013-07-16 14:30:00,
2013-07-16 07:35:00,63.1,31.8,29.77,NW,315,4.3,5.0,31,0.00,,,0.00,WUHU216TE923,2013-07-16 14:35:00,
2013-07-16 07:40:00,63.3,31.9,29.77,NW,315,4.0,6.3,31,0.00,,,0.00,WUHU216TE923,2013-07-16 14:40:00,
2013-07-16 07:45:00,63.5,32.1,29.77,NE,45,3.7,6.3,31,0.00,,,0.00,WUHU216TE923,2013-07-16 14:45:00,
2013-07-16 07:50:00,63.9,32.5,29.77,NW,315,3.8,5.5,31,0.00,,,0.00,WUHU216TE923,2013-07-16 14:50:00,
2013-07-16 07:55:00,63.9,32.5,29.77,NW,315,4.6,7.3,31,0.00,,,0.00,WUHU216TE923,2013-07-16 14:55:00,
2013-07-16 08:00:00,64.0,32.5,29.78,SE,135,4.3,7.3,31,0.00,,,0.00,WUHU216TE923,2013-07-16 15:00:00,
2013-07-16 08:05:00,64.2,32.7,29.78,NNE,23,4.2,9.1,31,0.00,,,0.00,WUHU216TE923,2013-07-16 15:05:00,
2013-07-16 08:10:00,64.2,32.7,29.78,NW,315,4.0,9.1,31,0.00,,,0.00,WUHU216TE923,2013-07-16 15:10:00,
2013-07-16 08:16:00,64.4,32.9,29.78,NNE,23,3.9,4.3,31,0.00,,,0.00,WUHU216TE923,2013-07-16 15:16:00,
2013-07-16 08:21:00,64.6,33.1,29.77,NE,45,4.3,5.8,31,0.00,,,0.00,WUHU216TE923,2013-07-16 15:21:00,
2013-07-16 08:26:00,64.6,33.1,29.77,NNW,338,4.8,5.8,31,0.00,,,0.00,WUHU216TE923,2013-07-16 15:26:00,
2013-07-16 08:31:00,64.6,33.9,29.77,NE,45,5.0,5.1,32,0.00,,,0.00,WUHU216TE923,2013-07-16 15:31:00,
2013-07-16 08:36:00,64.6,33.9,29.77,ENE,68,4.4,5.9,32,0.00,,,0.00,WUHU216TE923,2013-07-16 15:36:00,
2013-07-16 08:41:00,64.8,34.0,29.78,NNW,338,4.2,5.9,32,0.00,,,0.00,WUHU216TE923,2013-07-16 15:41:00,
2013-07-16 08:46:00,64.9,34.1,29.78,WSW,248,4.3,4.7,32,0.00,,,0.00,WUHU216TE923,2013-07-16 15:46:00,
2013-07-16 08:51:00,65.1,34.3,29.78,NNW,338,4.6,4.7,32,0.00,,,0.00,WUHU216TE923,2013-07-16 15:51:00,
2013-07-16 08:56:00,65.3,34.5,29.78,NNW,338,4.4,7.4,32,0.00,,,0.00,WUHU216TE923,2013-07-16 15:56:00,
2013-07-16 09:01:00,65.5,34.6,29.78,NNW,338,4.1,7.4,32,0.00,,,0.00,WUHU216TE923,2013-07-16 16:01:00,
2013-07-16 09:06:00,65.8,34.9,29.78,ENE,68,4.2,6.9,32,0.00,,,0.00,WUHU216TE923,2013-07-16 16:06:00,
2013-07-16 09:11:00,65.7,34.8,29.78,NW,315,4.1,8.0,32,0.00,,,0.00,WUHU216TE923,2013-07-16 16:11:00,
2013-07-16 09:16:00,66.0,35.1,29.78,NNW,338,4.4,8.0,32,0.00,,,0.00,WUHU216TE923,2013-07-16 16:16:00,
2013-07-16 09:21:00,66.4,35.4,29.78,ENE,68,4.4,5.2,32,0.00,,,0.00,WUHU216TE923,2013-07-16 16:21:00,
2013-07-16 09:26:00,66.6,35.6,29.78,NE,45,3.5,4.8,32,0.00,,,0.00,WUHU216TE923,2013-07-16 16:26:00,
2013-07-16 09:31:00,66.9,35.9,29.78,West,270,3.6,4.5,32,0.00,,,0.00,WUHU216TE923,2013-07-16 16:31:00,
2013-07-16 09:36:00,66.9,35.9,29.78,NNW,338,3.5,4.5,32,0.00,,,0.00,WUHU216TE923,2013-07-16 16:36:00,
2013-07-16 09:41:00,67.5,35.6,29.77,ENE,68,3.7,4.6,31,0.00,,,0.00,WUHU216TE923,2013-07-16 16:41:00,
2013-07-16 09:46:00,67.6,35.7,29.77,NNE,23,3.9,7.0,31,0.00,,,0.00,WUHU216TE923,2013-07-16 16:46:00,
2013-07-16 09:51:00,67.8,35.9,29.77,NNW,338,3.4,7.0,31,0.00,,,0.00,WUHU216TE923,2013-07-16 16:51:00,
2013-07-16 09:56:00,68.0,36.0,29.77,NW,315,3.5,4.6,31,0.00,,,0.00,WUHU216TE923,2013-07-16 16:56:00,
2013-07-16 10:01:00,68.4,36.4,29.77,ENE,68,2.9,4.6,31,0.00,,,0.00,WUHU216TE923,2013-07-16 17:01:00,
2013-07-16 10:06:00,68.7,36.6,29.77,NNE,23,3.1,3.5,31,0.00,,,0.00,WUHU216TE923,2013-07-16 17:06:00,
2013-07-16 10:11:00,68.9,36.8,29.77,SE,135,3.4,4.3,31,0.00,,,0.00,WUHU216TE923,2013-07-16 17:11:00,
2013-07-16 10:16:00,68.9,36.8,29.77,ENE,68,3.5,4.3,31,0.00,,,0.00,WUHU216TE923,2013-07-16 17:16:00,
2013-07-16 10:21:00,69.3,37.2,29.76,ENE,68,3.2,3.5,31,0.00,,,0.00,WUHU216TE923,2013-07-16 17:21:00,
2013-07-16 10:26:00,69.3,36.3,29.76,ENE,68,3.4,6.9,30,0.00,,,0.00,WUHU216TE923,2013-07-16 17:26:00,
2013-07-16 10:31:00,69.3,37.2,29.76,NNE,23,3.4,6.9,31,0.00,,,0.00,WUHU216TE923,2013-07-16 17:31:00,
2013-07-16 10:36:00,70.0,36.9,29.76,SE,135,3.5,4.5,30,0.00,,,0.00,WUHU216TE923,2013-07-16 17:36:00,
2013-07-16 10:41:00,70.0,36.9,29.76,ESE,113,3.6,6.1,30,0.00,,,0.00,WUHU216TE923,2013-07-16 17:41:00,
2013-07-16 10:46:00,69.8,36.8,29.76,NNE,23,3.2,6.1,30,0.00,,,0.00,WUHU216TE923,2013-07-16 17:46:00,
2013-07-16 10:51:00,69.4,36.4,29.76,NW,315,3.6,6.0,30,0.00,,,0.00,WUHU216TE923,2013-07-16 17:51:00,
2013-07-16 10:56:00,69.3,36.3,29.76,NE,45,3.8,6.0,30,0.00,,,0.00,WUHU216TE923,2013-07-16 17:56:00,
2013-07-16 11:01:00,69.8,36.8,29.76,NNE,23,3.4,6.6,30,0.00,,,0.00,WUHU216TE923,2013-07-16 18:01:00,
2013-07-16 11:06:00,70.3,37.2,29.76,NNE,23,3.7,6.6,30,0.00,,,0.00,WUHU216TE923,2013-07-16 18:06:00,
2013-07-16 11:11:00,70.3,37.2,29.76,NE,45,3.7,6.6,30,0.00,,,0.00,WUHU216TE923,2013-07-16 18:11:00,
2013-07-16 11:16:00,70.3,37.2,29.76,ENE,68,3.6,4.3,30,0.00,,,0.00,WUHU216TE923,2013-07-16 18:16:00,
2013-07-16 11:21:00,70.2,36.3,29.75,WSW,248,3.4,4.6,29,0.00,,,0.00,WUHU216TE923,2013-07-16 18:21:00,
2013-07-16 11:26:00,69.8,36.8,29.75,NW,315,2.5,4.7,30,0.00,,,0.00,WUHU216TE923,2013-07-16 18:26:00,
2013-07-16 11:31:00,69.3,36.3,29.75,ENE,68,1.9,4.7,30,0.00,,,0.00,WUHU216TE923,2013-07-16 18:31:00,
2013-07-16 11:36:00,69.3,36.3,29.75,ENE,68,1.9,3.2,30,0.00,,,0.00,WUHU216TE923,2013-07-16 18:36:00,
2013-07-16 11:41:00,68.7,35.8,29.77,NE,45,2.4,3.0,30,0.00,,,0.00,WUHU216TE923,2013-07-16 18:41:00,
2013-07-16 11:46:00,68.7,35.8,29.77,NE,45,2.4,3.0,30,0.00,,,0.00,WUHU216TE923,2013-07-16 18:46:00,
2013-07-16 11:51:00,68.7,36.6,29.77,ENE,68,2.2,2.5,31,0.00,,,0.00,WUHU216TE923,2013-07-16 18:51:00,
2013-07-16 11:56:00,68.7,36.6,29.77,ENE,68,2.2,2.5,31,0.00,,,0.00,WUHU216TE923,2013-07-16 18:56:00,
2013-07-16 12:01:00,69.4,37.3,29.76,NE,45,2.3,6.3,31,0.00,,,0.00,WUHU216TE923,2013-07-16 19:01:00,
2013-07-16 12:06:00,69.4,37.3,29.76,NE,45,2.3,6.3,31,0.00,,,0.00,WUHU216TE923,2013-07-16 19:06:00,
2013-07-16 12:11:00,69.6,37.4,29.76,East,90,2.5,7.2,31,0.00,,,0.00,WUHU216TE923,2013-07-16 19:11:00,
2013-07-16 12:16:00,69.6,37.4,29.76,East,90,2.5,7.2,31,0.00,,,0.00,WUHU216TE923,2013-07-16 19:16:00,
2013-07-16 12:21:00,70.2,37.1,29.74,WNW,293,3.9,6.5,30,0.00,,,0.00,WUHU216TE923,2013-07-16 19:21:00,
2013-07-16 12:26:00,70.2,37.1,29.74,WNW,293,3.9,6.5,30,0.00,,,0.00,WUHU216TE923,2013-07-16 19:26:00,
2013-07-16 12:31:00,71.1,37.9,29.74,East,90,3.6,6.7,30,0.00,,,0.00,WUHU216TE923,2013-07-16 19:31:00,
2013-07-16 12:36:00,71.1,37.9,29.74,East,90,3.6,6.7,30,0.00,,,0.00,WUHU216TE923,2013-07-16 19:36:00,
2013-07-16 12:41:00,71.1,37.9,29.76,SE,135,2.8,4.4,30,0.00,,,0.00,WUHU216TE923,2013-07-16 19:41:00,
2013-07-16 12:46:00,71.1,37.9,29.76,SE,135,2.8,4.4,30,0.00,,,0.00,WUHU216TE923,2013-07-16 19:46:00,
2013-07-16 12:51:00,71.2,38.0,29.76,NNW,338,2.7,3.7,30,0.00,,,0.00,WUHU216TE923,2013-07-16 19:51:00,
2013-07-16 12:56:00,71.2,38.0,29.76,NNW,338,2.7,3.7,30,0.00,,,0.00,WUHU216TE923,2013-07-16 19:56:00,
2013-07-16 13:01:00,71.6,38.3,29.76,WNW,293,2.6,5.3,30,0.00,,,0.00,WUHU216TE923,2013-07-16 20:01:00,
2013-07-16 13:06:00,71.6,38.3,29.76,WNW,293,2.6,5.3,30,0.00,,,0.00,WUHU216TE923,2013-07-16 20:06:00,
2013-07-16 13:11:00,72.0,38.7,29.76,NW,315,2.6,5.4,30,0.00,,,0.00,WUHU216TE923,2013-07-16 20:11:00,
2013-07-16 13:16:00,72.0,38.7,29.76,NW,315,2.6,5.4,30,0.00,,,0.00,WUHU216TE923,2013-07-16 20:16:00,
2013-07-16 13:21:00,72.1,38.8,29.76,ENE,68,3.5,4.0,30,0.00,,,0.00,WUHU216TE923,2013-07-16 20:21:00,
2013-07-16 13:26:00,72.1,38.8,29.76,ENE,68,3.5,4.0,30,0.00,,,0.00,WUHU216TE923,2013-07-16 20:26:00,
2013-07-16 13:31:00,72.5,38.3,29.76,NE,45,3.7,5.4,29,0.00,,,0.00,WUHU216TE923,2013-07-16 20:31:00,
2013-07-16 13:36:00,72.5,38.3,29.76,NE,45,3.7,5.4,29,0.00,,,0.00,WUHU216TE923,2013-07-16 20:36:00,
2013-07-16 13:41:00,72.9,39.5,29.75,North,0,2.6,5.9,30,0.00,,,0.00,WUHU216TE923,2013-07-16 20:41:00,
2013-07-16 13:46:00,72.9,39.5,29.75,North,0,2.6,5.9,30,0.00,,,0.00,WUHU216TE923,2013-07-16 20:46:00,
2013-07-16 13:51:00,73.0,38.7,29.75,NE,45,3.4,6.7,29,0.00,,,0.00,WUHU216TE923,2013-07-16 20:51:00,
2013-07-16 13:56:00,73.0,38.7,29.75,NE,45,3.4,6.7,29,0.00,,,0.00,WUHU216TE923,2013-07-16 20:56:00,
2013-07-16 14:01:00,72.5,38.3,29.75,North,0,2.9,4.0,29,0.00,,,0.00,WUHU216TE923,2013-07-16 21:01:00,
2013-07-16 14:06:00,72.5,38.3,29.75,North,0,2.9,4.0,29,0.00,,,0.00,WUHU216TE923,2013-07-16 21:06:00,
2013-07-16 14:11:00,72.1,37.9,29.75,WSW,248,2.8,4.2,29,0.00,,,0.00,WUHU216TE923,2013-07-16 21:11:00,
2013-07-16 14:16:00,72.1,37.9,29.75,WSW,248,2.8,4.2,29,0.00,,,0.00,WUHU216TE923,2013-07-16 21:16:00,
2013-07-16 14:21:00,72.3,38.1,29.75,NNW,338,3.0,3.7,29,0.00,,,0.00,WUHU216TE923,2013-07-16 21:21:00,
2013-07-16 14:26:00,72.3,38.1,29.75,NNW,338,3.0,3.7,29,0.00,,,0.00,WUHU216TE923,2013-07-16 21:26:00,
2013-07-16 14:31:00,72.3,38.1,29.75,NNE,23,2.9,6.2,29,0.00,,,0.00,WUHU216TE923,2013-07-16 21:31:00,
2013-07-16 14:36:00,72.3,38.1,29.75,NNE,23,2.9,6.2,29,0.00,,,0.00,WUHU216TE923,2013-07-16 21:36:00,
2013-07-16 14:41:00,73.8,38.5,29.76,NE,45,3.0,4.9,28,0.00,,,0.00,WUHU216TE923,2013-07-16 21:41:00,
2013-07-16 14:46:00,73.8,38.5,29.76,NE,45,3.0,4.9,28,0.00,,,0.00,WUHU216TE923,2013-07-16 21:46:00,
2013-07-16 14:51:00,75.0,38.6,29.76,NE,45,2.4,4.8,27,0.00,,,0.00,WUHU216TE923,2013-07-16 21:51:00,
2013-07-16 14:56:00,75.0,38.6,29.76,NE,45,2.4,4.8,27,0.00,,,0.00,WUHU216TE923,2013-07-16 21:56:00,
2013-07-16 15:01:00,76.1,38.6,29.75,ESE,113,2.4,2.9,26,0.00,,,0.00,WUHU216TE923,2013-07-16 22:01:00,
2013-07-16 15:06:00,76.1,38.6,29.75,ESE,113,2.4,2.9,26,0.00,,,0.00,WUHU216TE923,2013-07-16 22:06:00,
2013-07-16 15:11:00,77.0,38.4,29.75,NNE,23,2.8,5.3,25,0.00,,,0.00,WUHU216TE923,2013-07-16 22:11:00,
2013-07-16 15:16:00,77.0,38.4,29.75,NNE,23,2.8,5.3,25,0.00,,,0.00,WUHU216TE923,2013-07-16 22:16:00,
2013-07-16 15:21:00,78.1,39.3,29.75,NNE,23,2.7,6.3,25,0.00,,,0.00,WUHU216TE923,2013-07-16 22:21:00,
2013-07-16 15:26:00,78.1,39.3,29.75,NNE,23,2.7,6.3,25,0.00,,,0.00,WUHU216TE923,2013-07-16 22:26:00,
2013-07-16 15:31:00,78.4,38.5,29.75,NNE,23,2.4,3.6,24,0.00,,,0.00,WUHU216TE923,2013-07-16 22:31:00,
2013-07-16 15:36:00,78.4,38.5,29.75,NNE,23,2.4,3.6,24,0.00,,,0.00,WUHU216TE923,2013-07-16 22:36:00,
2013-07-16 15:41:00,79.0,39.0,29.75,NNE,23,2.6,2.6,24,0.00,,,0.00,WUHU216TE923,2013-07-16 22:41:00,
2013-07-16 15:46:00,79.0,39.0,29.75,NNE,23,2.6,2.6,24,0.00,,,0.00,WUHU216TE923,2013-07-16 22:46:00,
2013-07-16 15:51:00,80.2,40.0,29.75,ENE,68,1.6,2.5,24,0.00,,,0.00,WUHU216TE923,2013-07-16 22:51:00,
2013-07-16 15:56:00,80.2,40.0,29.75,ENE,68,1.6,2.5,24,0.00,,,0.00,WUHU216TE923,2013-07-16 22:56:00,
2013-07-16 16:01:00,80.4,39.1,29.74,East,90,1.9,5.6,23,0.00,,,0.00,WUHU216TE923,2013-07-16 23:01:00,
2013-07-16 16:06:00,80.4,39.1,29.74,East,90,1.9,5.6,23,0.00,,,0.00,WUHU216TE923,2013-07-16 23:06:00,
2013-07-16 16:11:00,81.0,39.6,29.74,NW,315,2.5,2.9,23,0.00,,,0.00,WUHU216TE923,2013-07-16 23:11:00,
2013-07-16 16:16:00,81.0,39.6,29.74,NW,315,2.5,2.9,23,0.00,,,0.00,WUHU216TE923,2013-07-16 23:16:00,
2013-07-16 16:21:00,80.2,39.0,29.74,WNW,293,2.1,2.4,23,0.00,,,0.00,WUHU216TE923,2013-07-16 23:21:00,
2013-07-16 16:26:00,80.2,39.0,29.74,WNW,293,2.1,2.4,23,0.00,,,0.00,WUHU216TE923,2013-07-16 23:26:00,
2013-07-16 16:31:00,80.1,38.9,29.74,NW,315,1.7,2.3,23,0.00,,,0.00,WUHU216TE923,2013-07-16 23:31:00,
2013-07-16 16:36:00,80.1,38.9,29.74,NW,315,1.7,2.3,23,0.00,,,0.00,WUHU216TE923,2013-07-16 23:36:00,
2013-07-16 16:41:00,79.3,38.2,29.73,East,90,2.2,2.8,23,0.00,,,0.00,WUHU216TE923,2013-07-16 23:41:00,
2013-07-16 16:46:00,79.3,38.2,29.73,East,90,2.2,2.8,23,0.00,,,0.00,WUHU216TE923,2013-07-16 23:46:00,
2013-07-16 16:51:00,78.3,35.1,29.73,NE,45,2.0,3.9,21,0.00,,,0.00,WUHU216TE923,2013-07-16 23:51:00,
2013-07-16 16:56:00,78.3,35.1,29.73,NE,45,2.0,3.9,21,0.00,,,0.00,WUHU216TE923,2013-07-16 23:56:00,
2013-07-16 17:01:00,77.9,34.8,29.73,ENE,68,2.5,2.6,21,0.00,,,0.00,WUHU216TE923,2013-07-17 00:01:00,
2013-07-16 17:06:00,77.9,34.8,29.73,ENE,68,2.5,2.6,21,0.00,,,0.00,WUHU216TE923,2013-07-17 00:06:00,
2013-07-16 17:11:00,77.9,34.8,29.73,NW,315,3.2,6.9,21,0.00,,,0.00,WUHU216TE923,2013-07-17 00:11:00,
2013-07-16 17:16:00,77.9,34.8,29.73,NW,315,3.2,6.9,21,0.00,,,0.00,WUHU216TE923,2013-07-17 00:16:00,
2013-07-16 17:21:00,77.9,34.8,29.72,WSW,248,3.7,4.7,21,0.00,,,0.00,WUHU216TE923,2013-07-17 00:21:00,
2013-07-16 17:26:00,77.9,34.8,29.72,WSW,248,3.7,4.7,21,0.00,,,0.00,WUHU216TE923,2013-07-17 00:26:00,
2013-07-16 17:31:00,77.7,34.6,29.72,NNE,23,3.1,7.6,21,0.00,,,0.00,WUHU216TE923,2013-07-17 00:31:00,
2013-07-16 17:36:00,77.7,34.6,29.72,NNE,23,3.1,7.6,21,0.00,,,0.00,WUHU216TE923,2013-07-17 00:36:00,
2013-07-16 17:41:00,77.5,34.4,29.72,NNW,338,3.0,4.4,21,0.00,,,0.00,WUHU216TE923,2013-07-17 00:41:00,
2013-07-16 17:46:00,77.5,34.4,29.72,NNW,338,3.0,4.4,21,0.00,,,0.00,WUHU216TE923,2013-07-17 00:46:00,
2013-07-16 17:51:00,77.5,34.4,29.72,NNE,23,3.1,6.3,21,0.00,,,0.00,WUHU216TE923,2013-07-17 00:51:00,
2013-07-16 17:56:00,77.5,34.4,29.72,NNE,23,3.1,6.3,21,0.00,,,0.00,WUHU216TE923,2013-07-17 00:56:00,
2013-07-16 18:01:00,77.4,34.4,29.72,NNE,23,3.5,3.5,21,0.00,,,0.00,WUHU216TE923,2013-07-17 01:01:00,
2013-07-16 18:06:00,77.4,34.4,29.72,NNE,23,3.5,3.5,21,0.00,,,0.00,WUHU216TE923,2013-07-17 01:06:00,
2013-07-16 18:11:00,77.2,34.2,29.72,ENE,68,3.3,6.1,21,0.00,,,0.00,WUHU216TE923,2013-07-17 01:11:00,
2013-07-16 18:16:00,77.2,34.2,29.72,ENE,68,3.3,6.1,21,0.00,,,0.00,WUHU216TE923,2013-07-17 01:16:00,
2013-07-16 18:21:00,77.2,34.2,29.72,West,270,3.6,5.7,21,0.00,,,0.00,WUHU216TE923,2013-07-17 01:21:00,
2013-07-16 18:26:00,77.2,34.2,29.72,West,270,3.6,5.7,21,0.00,,,0.00,WUHU216TE923,2013-07-17 01:26:00,
2013-07-16 18:31:00,77.0,34.0,29.72,East,90,3.2,4.1,21,0.00,,,0.00,WUHU216TE923,2013-07-17 01:31:00,
2013-07-16 18:36:00,77.0,34.0,29.72,East,90,3.2,4.1,21,0.00,,,0.00,WUHU216TE923,2013-07-17 01:36:00,
2013-07-16 18:41:00,77.0,34.0,29.73,NNE,23,2.7,4.8,21,0.00,,,0.00,WUHU216TE923,2013-07-17 01:41:00,
2013-07-16 18:46:00,77.0,34.0,29.73,NNE,23,2.7,4.8,21,0.00,,,0.00,WUHU216TE923,2013-07-17 01:46:00,
2013-07-16 18:51:00,76.6,35.9,29.73,NNW,338,2.7,4.4,23,0.00,,,0.00,WUHU216TE923,2013-07-17 01:51:00,
2013-07-16 18:56:00,76.6,35.9,29.73,NNW,338,2.7,4.4,23,0.00,,,0.00,WUHU216TE923,2013-07-17 01:56:00,
2013-07-16 19:01:00,76.6,35.9,29.73,NNE,23,2.6,5.3,23,0.00,,,0.00,WUHU216TE923,2013-07-17 02:01:00,
2013-07-16 19:06:00,76.6,35.9,29.73,NNE,23,2.6,5.3,23,0.00,,,0.00,WUHU216TE923,2013-07-17 02:06:00,
2013-07-16 19:11:00,76.5,35.9,29.73,ENE,68,3.2,4.2,23,0.00,,,0.00,WUHU216TE923,2013-07-17 02:11:00,
2013-07-16 19:16:00,76.5,35.9,29.73,ENE,68,3.2,4.2,23,0.00,,,0.00,WUHU216TE923,2013-07-17 02:16:00,
2013-07-16 19:21:00,76.3,35.7,29.73,NE,45,3.0,3.5,23,0.00,,,0.00,WUHU216TE923,2013-07-17 02:21:00,
2013-07-16 19:26:00,76.3,35.7,29.73,NE,45,3.0,3.5,23,0.00,,,0.00,WUHU216TE923,2013-07-17 02:26:00,
2013-07-16 19:31:00,76.3,37.8,29.73,NNE,23,3.3,3.8,25,0.00,,,0.00,WUHU216TE923,2013-07-17 02:31:00,
2013-07-16 19:36:00,76.3,37.8,29.73,NNE,23,3.3,3.8,25,0.00,,,0.00,WUHU216TE923,2013-07-17 02:36:00,
2013-07-16 19:41:00,75.9,40.3,29.73,ENE,68,3.7,5.9,28,0.00,,,0.00,WUHU216TE923,2013-07-17 02:41:00,
2013-07-16 19:46:00,75.9,40.3,29.73,ENE,68,3.7,5.9,28,0.00,,,0.00,WUHU216TE923,2013-07-17 02:46:00,
2013-07-16 19:51:00,75.4,41.6,29.73,NNE,23,5.3,7.8,30,0.00,,,0.00,WUHU216TE923,2013-07-17 02:51:00,
2013-07-16 19:56:00,75.4,41.6,29.73,NNE,23,5.3,7.8,30,0.00,,,0.00,WUHU216TE923,2013-07-17 02:56:00,
2013-07-16 20:01:00,74.8,42.0,29.74,NNW,338,5.3,7.1,31,0.00,,,0.00,WUHU216TE923,2013-07-17 03:01:00,
2013-07-16 20:06:00,74.8,42.0,29.74,NNW,338,5.3,7.1,31,0.00,,,0.00,WUHU216TE923,2013-07-17 03:06:00,
2013-07-16 20:11:00,74.3,43.2,29.74,NE,45,5.0,5.4,33,0.00,,,0.00,WUHU216TE923,2013-07-17 03:11:00,
2013-07-16 20:16:00,74.3,43.2,29.74,NE,45,5.0,5.4,33,0.00,,,0.00,WUHU216TE923,2013-07-17 03:16:00,
2013-07-16 20:21:00,73.8,42.7,29.75,North,0,3.9,4.6,33,0.00,,,0.00,WUHU216TE923,2013-07-17 03:21:00,
2013-07-16 20:26:00,73.8,42.7,29.75,North,0,3.9,4.6,33,0.00,,,0.00,WUHU216TE923,2013-07-17 03:26:00,
2013-07-16 20:31:00,73.2,43.7,29.75,NNW,338,2.7,3.7,35,0.00,,,0.00,WUHU216TE923,2013-07-17 03:31:00,
2013-07-16 20:36:00,73.2,43.7,29.75,NNW,338,2.7,3.7,35,0.00,,,0.00,WUHU216TE923,2013-07-17 03:36:00,
2013-07-16 20:41:00,72.9,43.5,29.76,ESE,113,3.3,3.9,35,0.00,,,0.00,WUHU216TE923,2013-07-17 03:41:00,
2013-07-16 20:46:00,72.9,43.5,29.76,ESE,113,3.3,3.9,35,0.00,,,0.00,WUHU216TE923,2013-07-17 03:46:00,
2013-07-16 20:56:00,72.3,42.2,29.76,NNW,338,2.7,4.3,34,0.00,,,0.00,WUHU216TE923,2013-07-17 03:56:00,
2013-07-16 21:01:00,71.8,41.7,29.77,NNE,23,3.0,4.0,34,0.00,,,0.00,WUHU216TE923,2013-07-17 04:01:00,
2013-07-16 21:06:00,71.8,41.7,29.77,NNE,23,3.0,4.0,34,0.00,,,0.00,WUHU216TE923,2013-07-17 04:06:00,
2013-07-16 21:11:00,71.2,41.2,29.77,NW,315,2.9,3.4,34,0.00,,,0.00,WUHU216TE923,2013-07-17 04:11:00,
2013-07-16 21:16:00,71.2,41.2,29.77,NW,315,2.9,3.4,34,0.00,,,0.00,WUHU216TE923,2013-07-17 04:16:00,
2013-07-16 21:21:00,70.7,40.8,29.77,NNE,23,3.1,5.0,34,0.00,,,0.00,WUHU216TE923,2013-07-17 04:21:00,
2013-07-16 21:26:00,70.7,40.8,29.77,NNE,23,3.1,5.0,34,0.00,,,0.00,WUHU216TE923,2013-07-17 04:26:00,
2013-07-16 21:31:00,70.3,40.4,29.77,North,0,3.1,3.9,34,0.00,,,0.00,WUHU216TE923,2013-07-17 04:31:00,
2013-07-16 21:36:00,70.3,40.4,29.77,North,0,3.1,3.9,34,0.00,,,0.00,WUHU216TE923,2013-07-17 04:36:00,
2013-07-16 21:41:00,69.8,40.0,29.79,NE,45,2.3,3.2,34,0.00,,,0.00,WUHU216TE923,2013-07-17 04:41:00,
2013-07-16 21:46:00,69.8,40.0,29.79,NE,45,2.3,3.2,34,0.00,,,0.00,WUHU216TE923,2013-07-17 04:46:00,
2013-07-16 21:51:00,69.3,40.3,29.79,NW,315,1.4,2.1,35,0.00,,,0.00,WUHU216TE923,2013-07-17 04:51:00,
2013-07-16 21:56:00,69.3,40.3,29.79,NW,315,1.4,2.1,35,0.00,,,0.00,WUHU216TE923,2013-07-17 04:56:00,
2013-07-16 22:01:00,68.9,39.9,29.80,NNE,23,0.9,1.4,35,0.00,,,0.00,WUHU216TE923,2013-07-17 05:01:00,
2013-07-16 22:06:00,68.9,39.9,29.80,NNE,23,0.9,1.4,35,0.00,,,0.00,WUHU216TE923,2013-07-17 05:06:00,
2013-07-16 22:11:00,68.4,40.2,29.80,NNW,338,0.9,1.4,36,0.00,,,0.00,WUHU216TE923,2013-07-17 05:11:00,
2013-07-16 22:16:00,68.4,40.2,29.80,NNW,338,0.9,1.4,36,0.00,,,0.00,WUHU216TE923,2013-07-17 05:16:00,
2013-07-16 22:21:00,68.0,39.9,29.80,NNW,338,0.6,1.1,36,0.00,,,0.00,WUHU216TE923,2013-07-17 05:21:00,
2013-07-16 22:26:00,68.0,39.9,29.80,NNW,338,0.6,1.1,36,0.00,,,0.00,WUHU216TE923,2013-07-17 05:26:00,
2013-07-16 22:36:00,67.6,39.5,29.80,NW,315,1.2,1.9,36,0.00,,,0.00,WUHU216TE923,2013-07-17 05:36:00,
2013-07-16 22:41:00,67.5,39.4,29.81,West,270,1.3,2.0,36,0.00,,,0.00,WUHU216TE923,2013-07-17 05:41:00,
2013-07-16 22:46:00,67.5,39.4,29.81,West,270,1.3,2.0,36,0.00,,,0.00,WUHU216TE923,2013-07-17 05:46:00,
2013-07-16 22:51:00,67.1,39.1,29.81,North,0,0.9,1.3,36,0.00,,,0.00,WUHU216TE923,2013-07-17 05:51:00,
2013-07-16 22:56:00,67.1,39.1,29.81,North,0,0.9,1.3,36,0.00,,,0.00,WUHU216TE923,2013-07-17 05:56:00,
2013-07-16 23:01:00,66.9,38.2,29.82,South,180,0.8,1.1,35,0.00,,,0.00,WUHU216TE923,2013-07-17 06:01:00,
2013-07-16 23:06:00,66.9,38.2,29.82,South,180,0.8,1.1,35,0.00,,,0.00,WUHU216TE923,2013-07-17 06:06:00,
2013-07-16 23:11:00,66.6,37.9,29.82,NW,315,0.6,1.5,35,0.00,,,0.00,WUHU216TE923,2013-07-17 06:11:00,
2013-07-16 23:16:00,66.6,37.9,29.82,NW,315,0.6,1.5,35,0.00,,,0.00,WUHU216TE923,2013-07-17 06:16:00,
2013-07-16 23:21:00,66.4,37.7,29.83,NNW,338,1.0,2.2,35,0.00,,,0.00,WUHU216TE923,2013-07-17 06:21:00,
2013-07-16 23:26:00,66.4,37.7,29.83,NNW,338,1.0,2.2,35,0.00,,,0.00,WUHU216TE923,2013-07-17 06:26:00,
2013-07-16 23:31:00,66.6,37.9,29.83,West,270,1.6,1.9,35,0.00,,,0.00,WUHU216TE923,2013-07-17 06:31:00,
2013-07-16 23:36:00,66.6,37.9,29.83,West,270,1.6,1.9,35,0.00,,,0.00,WUHU216TE923,2013-07-17 06:36:00,
2013-07-16 23:41:00,66.6,37.2,29.82,WNW,293,1.4,3.8,34,0.00,,,0.00,WUHU216TE923,2013-07-17 06:41:00,
2013-07-16 23:46:00,66.6,37.2,29.82,WNW,293,1.4,3.8,34,0.00,,,0.00,WUHU216TE923,2013-07-17 06:46:00,
2013-07-16 23:51:00,66.6,37.9,29.82,NNW,338,1.5,5.5,35,0.00,,,0.00,WUHU216TE923,2013-07-17 06:51:00,
2013-07-16 23:56:00,66.6,37.9,29.82,NNW,338,1.5,5.5,35,0.00,,,0.00,WUHU216TE923,2013-07-17 06:56:00,